This is the latest recevied weather packets stored in our database for station/object VU3HGG-WX. If no packets are shown the sender has not sent any weather packets the latest 10 day(s).
| Time | Temp. | Humidity | Pressure | Rain* | Wind** | Luminosity | Snow |
|---|---|---|---|---|---|---|---|
| 1787996980 | 26.67° C | 60% | 908.2 hPa | - | - | - | - |
| 1787996379 | 26.67° C | 58% | 908.2 hPa | - | - | - | - |
| 1787995780 | 26.67° C | 60% | 908.3 hPa | - | - | - | - |
| 1787995179 | 26.67° C | 60% | 908.4 hPa | - | - | - | - |
| 1787994579 | 26.67° C | 61% | 908.4 hPa | - | - | - | - |
| 1787993979 | 26.67° C | 61% | 908.6 hPa | - | - | - | - |
| 1787993370 | 26.11° C | 61% | 908.8 hPa | - | - | - | - |
| 1787992770 | 26.11° C | 62% | 908.9 hPa | - | - | - | - |
| 1787992170 | 26.11° C | 64% | 909 hPa | - | - | - | - |
| 1787991570 | 25.56° C | 68% | 909 hPa | - | - | - | - |
| 1787990971 | 25.56° C | 69% | 909.3 hPa | - | - | - | - |
| 1787990370 | 25.56° C | 63% | 909.3 hPa | - | - | - | - |
| 1787989770 | 25.56° C | 63% | 909.6 hPa | - | - | - | - |
| 1787989170 | 25.56° C | 62% | 909.7 hPa | - | - | - | - |
| 1787988570 | 25.56° C | 63% | 909.8 hPa | - | - | - | - |
| 1787987970 | 25.56° C | 64% | 909.9 hPa | - | - | - | - |
| 1787987370 | 25.56° C | 64% | 910.2 hPa | - | - | - | - |
| 1787986770 | 25° C | 65% | 910.3 hPa | - | - | - | - |
| 1787986170 | 25° C | 67% | 910.5 hPa | - | - | - | - |
| 1787985570 | 24.44° C | 67% | 910.8 hPa | - | - | - | - |
| 1787984970 | 24.44° C | 67% | 910.8 hPa | - | - | - | - |
| 1787984370 | 24.44° C | 67% | 910.9 hPa | - | - | - | - |
| 1787983770 | 24.44° C | 67% | 911.1 hPa | - | - | - | - |
| 1787983170 | 24.44° C | 67% | 911.2 hPa | - | - | - | - |
| 1787982570 | 23.89° C | 68% | 911.3 hPa | - | - | - | - |
* Rain since midnight (hover to see other rain measurements)
** Current wind speed in m/s (hover to see current wind gust speed)